Satellite: NO-44
Catalog number: 26931
Epoch time:      06278.75917741
Element set:     417
Inclination:      067.0510 deg
RA of node:       082.8671 deg
Eccentricity:    0.0005043
Arg of perigee:   254.8457 deg
Mean anomaly:     105.2108 deg
Mean motion:   14.29454953 rev/day
Decay rate:       1.56e-06 rev/day^2
Epoch rev:           26173
Checksum:              307

Satellite: SO-50
Catalog number: 27607
Epoch time:      06276.72476637
Element set:    0137
Inclination:      064.5571 deg
RA of node:       143.6185 deg
Eccentricity:    0.0035332
Arg of perigee:   101.8023 deg
Mean anomaly:     258.7021 deg
Mean motion:   14.71177033 rev/day
Decay rate:       -6.7e-07 rev/day^2
Epoch rev:           20339
Checksum:              289

Satellite: CO-55
Catalog number: 27844
Epoch time:      06278.61211241
Element set:     864
Inclination:      098.7204 deg
RA of node:       285.3863 deg
Eccentricity:    0.0010755
Arg of perigee:   103.3907 deg
Mean anomaly:     256.8469 deg
Mean motion:   14.20461158 rev/day
Decay rate:        7.8e-07 rev/day^2
Epoch rev:           16933
Checksum:              320

Satellite: CO-57
Catalog number: 27848
Epoch time:      06276.48737907
Element set:    0829
Inclination:      098.7213 deg
RA of node:       282.5887 deg
Eccentricity:    0.0010400
Arg of perigee:   111.9339 deg
Mean anomaly:     248.2953 deg
Mean motion:   14.20286419 rev/day
Decay rate:        3.3e-07 rev/day^2
Epoch rev:           16901
Checksum:              332

Satellite: AO-51
Catalog number: 28375
Epoch time:      06277.61424846
Element set:    0644
Inclination:      098.1526 deg
RA of node:       324.5956 deg
Eccentricity:    0.0083140
Arg of perigee:   236.7200 deg
Mean anomaly:     122.6005 deg
Mean motion:   14.40535153 rev/day
Decay rate:        1.9e-07 rev/day^2
Epoch rev:           11892
Checksum:              292

Satellite: CO-56
Catalog number: 28941
Epoch time:      06278.73727739
Element set:     218
Inclination:      098.1704 deg
RA of node:       308.1546 deg
Eccentricity:    0.0267977
Arg of perigee:   086.7304 deg
Mean anomaly:     276.4541 deg
Mean motion:   15.28558772 rev/day
Decay rate:     1.9897e-04 rev/day^2
Epoch rev:            3441
Checksum:              369

/EX
SB KEPS @ AMSAT  $ORB06278.W
Orbital Elements  06278.WEATHER

HR AMSAT ORBITAL ELEMENTS FOR WEATHER SATELLITES
FROM WA5QGD FORT WORTH,TX October 5, 2006
Send SUBSCRIBE KEPS/UNSUBSCRIBE KEPS to majordomo@amsat.org only
BID: ORB06278.W
TO ALL RADIO AMATEURS BT

Satellite: NOAA-10
Catalog number: 16969
Epoch time:      06276.66238376
Element set:    0369
Inclination:      098.7604 deg
RA of node:       288.5282 deg
Eccentricity:    0.0012127
Arg of perigee:   191.2457 deg
Mean anomaly:     168.8460 deg
Mean motion:   14.27304408 rev/day
Decay rate:       -7.1e-07 rev/day^2
Epoch rev:           04263
Checksum:              324

Satellite: NOAA-11
Catalog number: 19531
Epoch time:      06276.84526680
Element set:    0314
Inclination:      098.8238 deg
RA of node:       004.0731 deg
Eccentricity:    0.0012215
Arg of perigee:   043.1243 deg
Mean anomaly:     317.0872 deg
Mean motion:   14.14819033 rev/day
Decay rate:       -2.4e-07 rev/day^2
Epoch rev:           92990
Checksum:              279

Satellite: NOAA-12
Catalog number: 21263
Epoch time:      06276.76058997
Element set:    0808
Inclination:      098.7399 deg
RA of node:       269.6315 deg
Eccentricity:    0.0013343
Arg of perigee:   129.7967 deg
Mean anomaly:     230.4399 deg
Mean motion:   14.25508259 rev/day
Decay rate:       -6.4e-07 rev/day^2
Epoch rev:           79971
Checksum:              363

Satellite: MET-3/5
Catalog number: 21655
Epoch time:      06276.92677286
Element set:    0242
Inclination:      082.5590 deg
RA of node:       183.9769 deg
Eccentricity:    0.0013730
Arg of perigee:   125.2900 deg
Mean anomaly:     234.9509 deg
Mean motion:   13.17007952 rev/day
Decay rate:        5.1e-07 rev/day^2
Epoch rev:           72767
Checksum:              321

Satellite: MET-2/21
Catalog number: 22782
Epoch time:      06276.93933507
Element set:    0632
Inclination:      082.5451 deg
RA of node:       245.1662 deg
Eccentricity:    0.0020925
Arg of perigee:   233.0509 deg
Mean anomaly:     126.8737 deg
Mean motion:   13.83610512 rev/day
Decay rate:        2.7e-07 rev/day^2
Epoch rev:           66108
Checksum:              293

Satellite: OKEAN-4
Catalog number: 23317
Epoch time:      06278.71665038
Element set:      68
Inclination:      082.5423 deg
RA of node:       173.9189 deg
Eccentricity:    0.0023196
Arg of perigee:   014.8607 deg
Mean anomaly:     345.3264 deg
Mean motion:   14.82405629 rev/day
Decay rate:       2.13e-06 rev/day^2
Epoch rev:           64635
Checksum:              310

Satellite: NOAA-14
Catalog number: 23455
Epoch time:      06276.72949375
Element set:    0307
Inclination:      099.0269 deg
RA of node:       336.1006 deg
Eccentricity:    0.0010174
Arg of perigee:   104.7756 deg
Mean anomaly:     255.4597 deg
Mean motion:   14.13667141 rev/day
Decay rate:        5.5e-07 rev/day^2
Epoch rev:           60640
Checksum:              306

Satellite: SICH-1
Catalog number: 23657
Epoch time:      06278.71825935
Element set:     871
Inclination:      082.5290 deg
RA of node:       314.8221 deg
Eccentricity:    0.0024269
Arg of perigee:   003.9058 deg
Mean anomaly:     356.2349 deg
Mean motion:   14.81395653 rev/day
Decay rate:       1.42e-06 rev/day^2
Epoch rev:           59835
Checksum:              322

